"Pseudo-MPEC" for P1186tj

Created 2020 Oct 28 20:07:10 UT using Find_Orb

Click here for an explanation of pseudo-MPECs

 
 Astrometry: 
     P1186tj  C2020 10 16Dq6`1I\fS!M:O#y_!O^RL\$H]Iy'@6AQ9WrlXtn_P.4.at/k2;k^F51
     P1186tj  C2020 10 16wI`Zr`lP7xiop['D)ftkAstrometryU\S)kD;`iT]8:rdThV*%.MF51
     P1186tj  C2020 10 16N$/Ulvw^QYkZ%iOeX)#Jxu4,cD7BSdq1M4teX-D#g#lqi$TlN,A9F51
     P1186tj  C2020 10 16^`*Zmn+%v2mp4X(vV+redacted;=Zw4#UiI)OjEh(_rbSAn2=Z%gF51
     P1186tj KC2020 10 17H]IDmTbM+v*`?SCowB7%'0B4QjFHJ%irb8=0F%]click+UBEhere474
     P1186tj KC2020 10 17OuhDMd5RkENZvforxh,gaHY$2%]J08lUggwe:a!G-ugQnGO\-qC0474
     P1186tj KC2020 10 17P!B08l@Q^Pr'8tCmAPGqqxexplanationerN!ZyyjOT2_mYZx=dJ474
     P1186tj KC2020 10 19wErhcmr1C/]7_P68@@l,Y_em]]1bZW$,yhryr;bV1oaj-[dyhD_-474
     P1186tj KC2020 10 19kvD#8Y4=e3+?+^l!FH2=NEJc/#Q-b9y97Qp6H6I-//kU0l#vFt$k474

Station data:
(474) Mount John Observatory, Lake Tekapo  (S43.987388 E170.464960)  New
   Zealand.  Observers A. C. Gilmore, P. M. Kilmartin. Measurer P. M.
   Kilmartin. 1.0-m f/7.7 reflector + CCD.
(F51) Pan-STARRS 1, Haleakala  (N20.707235 W156.255910)  US/Hawaii.
   Observers N. Primak, A. Schultz, S. Watters, J. Thiel, T. Goggia. Measurer
   PS1 Science Consortium. 1.8-m Ritchey-Chrétien + CCD.

Orbital elements:  P1186tj
   Perihelion 2020 Aug 10.045664 +/- 0.769 TT =  1:05:45 (JD 2459071.545664)
Epoch 2020 Oct 19.0 TT = JDT 2459141.5   Earth MOID: 0.2470   Ma: 0.0657
M  14.77027057 +/- 1.4              (J2000 ecliptic)          AutoNEOCP
n   0.21114160 +/- 0.0194           Peri.  226.00451 +/- 1.7
a   2.79310228 +/- 0.171            Node    86.98435 +/- 1.1
e   0.5590288 +/- 0.0236            Incl.    9.31473 +/- 0.16
P   4.67                   H 20.8   G  0.15   U 10.1  
q 1.23167742 +/- 0.0105    Q 4.35452713 +/- 0.355
From 9 observations 2020 Oct. 16-19; mean residual 0".18
Residuals in arcseconds: 
201016 F51  .07-  .11+    201016 F51  .04+  .07-    201017 474  .10-  .12+    
201016 F51  .30-  .02+    201017 474  .09-  .11-    201019 474  .25-  .25-    
201016 F51  .35+  .08-    201017 474  .17+  .01+    201019 474  .26+  .25+    

Ephemerides (geocentric):
Date (UTC) HH   RA              Dec         delta   r     elong  mag " sig PA
---- -- -- --  -------------   -----------  ------ ------ -----  --- ---- ---
2020 10 28 20  23 32 39.290   -24 02 34.37  .70816 1.5203 125.8 22.3 11.6  80
2020 10 28 21  23 32 42.891   -24 01 25.53  .70859 1.5206 125.8 22.3 11.7  80
2020 10 28 22  23 32 46.493   -24 00 16.70  .70903 1.5209 125.8 22.3 11.8  80
2020 10 28 23  23 32 50.094   -23 59 07.90  .70946 1.5211 125.8 22.3 11.9  80
2020 10 29 00  23 32 53.694   -23 57 59.12  .70989 1.5214 125.8 22.4 11.9  80
2020 10 29 01  23 32 57.294   -23 56 50.37  .71032 1.5216 125.7 22.4 12.0  80
2020 10 29 02  23 33 00.894   -23 55 41.63  .71075 1.5219 125.7 22.4 12.1  80
2020 10 29 03  23 33 04.493   -23 54 32.92  .71118 1.5221 125.7 22.4 12.2  80
2020 10 29 04  23 33 08.091   -23 53 24.23  .71162 1.5224 125.7 22.4 12.3  80
2020 10 29 05  23 33 11.689   -23 52 15.57  .71205 1.5226 125.7 22.4 12.4  80
2020 10 29 06  23 33 15.287   -23 51 06.93  .71248 1.5229 125.7 22.4 12.5  79
2020 10 29 07  23 33 18.884   -23 49 58.31  .71292 1.5232 125.6 22.4 12.6  79
2020 10 29 08  23 33 22.481   -23 48 49.71  .71335 1.5234 125.6 22.4 12.7  79
2020 10 29 09  23 33 26.078   -23 47 41.13  .71378 1.5237 125.6 22.4 12.8  79
2020 10 29 10  23 33 29.674   -23 46 32.58  .71422 1.5239 125.6 22.4 12.9  79
2020 10 29 11  23 33 33.269   -23 45 24.05  .71465 1.5242 125.6 22.4 13.0  79
2020 10 29 12  23 33 36.864   -23 44 15.54  .71509 1.5244 125.6 22.4 13.1  79
2020 10 29 13  23 33 40.459   -23 43 07.06  .71552 1.5247 125.6 22.4 13.2  79
2020 10 29 14  23 33 44.053   -23 41 58.59  .71596 1.5249 125.5 22.4 13.3  79
2020 10 29 15  23 33 47.647   -23 40 50.16  .71639 1.5252 125.5 22.4 13.4  79
2020 10 29 16  23 33 51.240   -23 39 41.74  .71683 1.5255 125.5 22.4 13.5  79
2020 10 29 17  23 33 54.833   -23 38 33.34  .71726 1.5257 125.5 22.4 13.6  79
2020 10 29 18  23 33 58.425   -23 37 24.97  .71770 1.5260 125.5 22.4 13.7  79
2020 10 29 19  23 34 02.017   -23 36 16.62  .71813 1.5262 125.5 22.4 13.8  79
2020 10 29 20  23 34 05.609   -23 35 08.30  .71857 1.5265 125.4 22.4 13.9  79
2020 10 29 21  23 34 09.200   -23 33 59.99  .71901 1.5267 125.4 22.4 14.0  79
2020 10 29 22  23 34 12.791   -23 32 51.71  .71944 1.5270 125.4 22.4 14.1  79
2020 10 29 23  23 34 16.381   -23 31 43.45  .71988 1.5273 125.4 22.4 14.2  79
2020 10 30 00  23 34 19.971   -23 30 35.22  .72032 1.5275 125.4 22.4 14.3  79
2020 10 30 01  23 34 23.560   -23 29 27.01  .72076 1.5278 125.4 22.4 14.4  79
2020 10 30 02  23 34 27.149   -23 28 18.82  .72119 1.5280 125.4 22.4 14.5  79
2020 10 30 03  23 34 30.738   -23 27 10.65  .72163 1.5283 125.3 22.4 14.6  79
2020 10 30 04  23 34 34.326   -23 26 02.50  .72207 1.5285 125.3 22.4 14.7  79
2020 10 30 05  23 34 37.914   -23 24 54.38  .72251 1.5288 125.3 22.4 14.8  78
2020 10 30 06  23 34 41.501   -23 23 46.28  .72295 1.5291 125.3 22.4 14.9  78
2020 10 30 07  23 34 45.088   -23 22 38.20  .72339 1.5293 125.3 22.4 15.0  78
2020 10 30 08  23 34 48.675   -23 21 30.15  .72383 1.5296 125.3 22.4 15.1  78
2020 10 30 09  23 34 52.261   -23 20 22.12  .72426 1.5298 125.2 22.4 15.2  78
2020 10 30 10  23 34 55.847   -23 19 14.11  .72470 1.5301 125.2 22.4 15.3  78
2020 10 30 11  23 34 59.432   -23 18 06.12  .72514 1.5303 125.2 22.4 15.5  78
2020 10 30 12  23 35 03.017   -23 16 58.16  .72558 1.5306 125.2 22.4 15.6  78
2020 10 30 13  23 35 06.602   -23 15 50.22  .72602 1.5309 125.2 22.4 15.7  78
2020 10 30 14  23 35 10.186   -23 14 42.30  .72646 1.5311 125.2 22.4 15.8  78
2020 10 30 15  23 35 13.769   -23 13 34.41  .72691 1.5314 125.1 22.4 15.9  78
2020 10 30 16  23 35 17.353   -23 12 26.54  .72735 1.5316 125.1 22.4 16.0  78
2020 10 30 17  23 35 20.936   -23 11 18.69  .72779 1.5319 125.1 22.4 16.1  78
2020 10 30 18  23 35 24.518   -23 10 10.86  .72823 1.5321 125.1 22.4 16.2  78
2020 10 30 19  23 35 28.100   -23 09 03.06  .72867 1.5324 125.1 22.4 16.3  78